Time,TemperatureF,DewpointF,PressureIn,WindDirection,WindDirectionDegrees,WindSpeedMPH,WindSpeedGustMPH,Humidity,HourlyPrecipIn,Conditions,Clouds,dailyrainin,SoftwareType,DateUTC
2013-01-16 00:02:00,20.1,-3.1,28.91,ESE,119,4.0,8.3,35,0.00,,CLR,0.00,VWS V14.00,2013-01-16 06:02:00,
2013-01-16 00:07:00,20.3,-3.0,28.91,SE,125,8.3,8.3,35,0.00,,CLR,0.00,VWS V14.00,2013-01-16 06:07:00,
2013-01-16 00:12:00,20.3,-3.0,28.91,SE,135,4.0,7.6,35,0.00,,CLR,0.00,VWS V14.00,2013-01-16 06:12:00,
2013-01-16 00:17:00,20.3,-3.0,28.91,ESE,122,5.4,7.6,35,0.00,,CLR,0.00,VWS V14.00,2013-01-16 06:17:00,
2013-01-16 00:22:00,20.1,-3.1,28.91,SE,138,5.4,6.7,35,0.00,,CLR,0.00,VWS V14.00,2013-01-16 06:22:00,
2013-01-16 00:27:00,20.1,-3.1,28.91,SE,131,4.9,7.6,35,0.00,,CLR,0.00,VWS V14.00,2013-01-16 06:27:00,
2013-01-16 00:32:00,20.1,-3.1,28.91,ESE,109,5.8,5.8,35,0.00,,CLR,0.00,VWS V14.00,2013-01-16 06:32:00,
2013-01-16 00:37:00,20.3,-3.0,28.91,SE,135,4.9,7.6,35,0.00,,CLR,0.00,VWS V14.00,2013-01-16 06:37:00,
2013-01-16 00:42:00,20.1,-3.1,28.91,ESE,108,3.6,8.1,35,0.00,,CLR,0.00,VWS V14.00,2013-01-16 06:42:00,
2013-01-16 00:47:00,20.3,-3.0,28.91,SE,140,6.3,8.1,35,0.00,,CLR,0.00,VWS V14.00,2013-01-16 06:47:00,
2013-01-16 00:52:00,20.3,-3.0,28.91,SE,142,7.6,7.6,35,0.00,,CLR,0.00,VWS V14.00,2013-01-16 06:52:00,
2013-01-16 00:57:00,20.1,-3.1,28.91,SE,130,3.1,7.6,35,0.00,,CLR,0.00,VWS V14.00,2013-01-16 06:57:00,
2013-01-16 01:02:00,20.1,-2.5,28.91,SE,124,4.9,6.3,36,0.00,,CLR,0.00,VWS V14.00,2013-01-16 07:02:00,
2013-01-16 01:07:00,19.9,-2.7,28.91,SSE,153,4.0,6.3,36,0.00,,CLR,0.00,VWS V14.00,2013-01-16 07:07:00,
2013-01-16 01:12:00,20.1,-2.5,28.88,SE,138,4.9,6.7,36,0.00,,CLR,0.00,VWS V14.00,2013-01-16 07:12:00,
2013-01-16 01:17:00,20.3,-2.4,28.88,SSE,155,4.0,6.7,36,0.00,,CLR,0.00,VWS V14.00,2013-01-16 07:17:00,
2013-01-16 01:22:00,20.3,-2.4,28.88,SE,128,3.6,6.3,36,0.00,,CLR,0.00,VWS V14.00,2013-01-16 07:22:00,
2013-01-16 01:27:00,20.3,-2.4,28.88,ESE,113,3.6,6.3,36,0.00,,CLR,0.00,VWS V14.00,2013-01-16 07:27:00,
2013-01-16 01:32:00,20.3,-1.8,28.88,ESE,120,6.3,6.3,37,0.00,,CLR,0.00,VWS V14.00,2013-01-16 07:32:00,
2013-01-16 01:37:00,20.3,-1.8,28.88,SE,137,3.6,6.3,37,0.00,,CLR,0.00,VWS V14.00,2013-01-16 07:37:00,
2013-01-16 01:42:00,20.5,-1.6,28.88,ESE,119,5.8,7.6,37,0.00,,CLR,0.00,VWS V14.00,2013-01-16 07:42:00,
2013-01-16 01:47:00,20.7,-1.5,28.88,SE,139,2.7,7.6,37,0.00,,CLR,0.00,VWS V14.00,2013-01-16 07:47:00,
2013-01-16 01:52:00,20.7,-1.5,28.88,SE,124,8.1,8.1,37,0.00,,CLR,0.00,VWS V14.00,2013-01-16 07:52:00,
2013-01-16 01:57:00,20.8,-1.3,28.88,SE,139,5.4,8.1,37,0.00,,CLR,0.00,VWS V14.00,2013-01-16 07:57:00,
2013-01-16 02:02:00,20.7,-1.5,28.88,SE,144,3.1,5.8,37,0.00,,CLR,0.00,VWS V14.00,2013-01-16 08:02:00,
2013-01-16 02:07:00,20.7,-1.5,28.88,SE,141,5.8,6.3,37,0.00,,CLR,0.00,VWS V14.00,2013-01-16 08:07:00,
2013-01-16 02:12:00,20.7,-1.5,28.88,SE,130,3.6,6.3,37,0.00,,CLR,0.00,VWS V14.00,2013-01-16 08:12:00,
2013-01-16 02:17:00,20.5,-1.1,28.88,SSE,150,5.8,7.6,38,0.00,,CLR,0.00,VWS V14.00,2013-01-16 08:17:00,
2013-01-16 02:22:00,20.7,-0.9,28.88,SE,138,4.0,7.6,38,0.00,,CLR,0.00,VWS V14.00,2013-01-16 08:22:00,
2013-01-16 02:27:00,20.8,-0.8,28.88,SE,140,7.2,8.3,38,0.00,,CLR,0.00,VWS V14.00,2013-01-16 08:27:00,
2013-01-16 02:32:00,20.8,-0.8,28.88,SE,124,5.8,8.1,38,0.00,,CLR,0.00,VWS V14.00,2013-01-16 08:32:00,
2013-01-16 02:37:00,20.8,-0.8,28.88,ESE,116,6.3,8.1,38,0.00,,CLR,0.00,VWS V14.00,2013-01-16 08:37:00,
2013-01-16 02:42:00,20.7,-0.4,28.88,ESE,115,4.0,8.1,39,0.00,,CLR,0.00,VWS V14.00,2013-01-16 08:42:00,
2013-01-16 02:47:00,20.7,-0.4,28.88,SE,131,5.4,8.1,39,0.00,,CLR,0.00,VWS V14.00,2013-01-16 08:47:00,
2013-01-16 02:52:00,20.7,0.2,28.88,SE,128,6.3,6.7,40,0.00,,CLR,0.00,VWS V14.00,2013-01-16 08:52:00,
2013-01-16 02:57:00,20.5,0.5,28.85,SSE,148,5.8,8.1,41,0.00,,CLR,0.00,VWS V14.00,2013-01-16 08:57:00,
2013-01-16 03:02:00,20.5,0.5,28.85,ESE,117,3.6,7.6,41,0.00,,CLR,0.00,VWS V14.00,2013-01-16 09:02:00,
2013-01-16 03:07:00,20.7,1.2,28.85,SE,137,2.7,8.3,42,0.00,,CLR,0.00,VWS V14.00,2013-01-16 09:07:00,
2013-01-16 03:12:00,20.3,0.9,28.85,SE,140,4.0,7.6,42,0.00,,CLR,0.00,VWS V14.00,2013-01-16 09:12:00,
2013-01-16 03:17:00,20.8,1.9,28.85,SSE,152,4.9,8.1,43,0.00,,CLR,0.00,VWS V14.00,2013-01-16 09:17:00,
2013-01-16 03:22:00,20.8,1.9,28.85,SE,144,3.1,8.1,43,0.00,,CLR,0.00,VWS V14.00,2013-01-16 09:22:00,
2013-01-16 03:27:00,21.0,2.0,28.85,SE,130,8.1,8.1,43,0.00,,CLR,0.00,VWS V14.00,2013-01-16 09:27:00,
2013-01-16 03:32:00,21.4,1.9,28.85,SSE,148,5.4,7.6,42,0.00,,CLR,0.00,VWS V14.00,2013-01-16 09:32:00,
2013-01-16 03:37:00,21.4,1.9,28.85,ESE,118,5.8,7.6,42,0.00,,CLR,0.00,VWS V14.00,2013-01-16 09:37:00,
2013-01-16 03:42:00,21.7,2.2,28.82,SE,137,8.7,8.7,42,0.00,,CLR,0.00,VWS V14.00,2013-01-16 09:42:00,
2013-01-16 03:47:00,22.1,2.5,28.82,SE,128,5.4,8.7,42,0.00,,CLR,0.00,VWS V14.00,2013-01-16 09:47:00,
2013-01-16 03:52:00,22.3,2.7,28.82,SE,126,5.8,10.5,42,0.00,,CLR,0.00,VWS V14.00,2013-01-16 09:52:00,
2013-01-16 03:57:00,22.1,2.0,28.82,SSE,147,8.7,10.5,41,0.00,,CLR,0.00,VWS V14.00,2013-01-16 09:57:00,
2013-01-16 04:02:00,22.1,2.0,28.82,SE,129,5.4,8.3,41,0.00,,CLR,0.00,VWS V14.00,2013-01-16 10:02:00,
2013-01-16 04:07:00,21.9,2.4,28.82,SE,146,5.4,8.3,42,0.00,,CLR,0.00,VWS V14.00,2013-01-16 10:07:00,
2013-01-16 04:12:00,22.3,2.7,28.82,SE,144,6.3,8.7,42,0.00,,CLR,0.00,VWS V14.00,2013-01-16 10:12:00,
2013-01-16 04:17:00,22.3,2.7,28.82,ESE,118,5.8,11.0,42,0.00,,CLR,0.00,VWS V14.00,2013-01-16 10:17:00,
2013-01-16 04:22:00,22.3,2.7,28.82,SE,135,6.3,10.1,42,0.00,,CLR,0.00,VWS V14.00,2013-01-16 10:22:00,
2013-01-16 04:27:00,22.5,2.3,28.79,SSE,151,9.2,10.5,41,0.00,,CLR,0.00,VWS V14.00,2013-01-16 10:27:00,
2013-01-16 04:32:00,22.5,2.8,28.79,SE,144,7.6,8.1,42,0.00,,CLR,0.00,VWS V14.00,2013-01-16 10:32:00,
2013-01-16 04:37:00,22.5,2.8,28.79,SSE,152,6.3,11.0,42,0.00,,CLR,0.00,VWS V14.00,2013-01-16 10:37:00,
2013-01-16 04:42:00,22.5,2.8,28.79,SE,133,4.9,8.1,42,0.00,,CLR,0.00,VWS V14.00,2013-01-16 10:42:00,
2013-01-16 04:47:00,22.5,2.8,28.79,SSE,149,7.6,8.7,42,0.00,,CLR,0.00,VWS V14.00,2013-01-16 10:47:00,
2013-01-16 04:52:00,22.6,3.0,28.79,SE,133,6.3,10.5,42,0.00,,CLR,0.00,VWS V14.00,2013-01-16 10:52:00,
2013-01-16 04:57:00,23.0,3.3,28.79,SE,133,5.4,10.5,42,0.00,,CLR,0.00,VWS V14.00,2013-01-16 10:57:00,
2013-01-16 05:02:00,23.0,3.3,28.79,SE,125,4.5,11.0,42,0.00,,CLR,0.00,VWS V14.00,2013-01-16 11:02:00,
2013-01-16 05:07:00,23.0,3.3,28.79,SE,132,7.2,11.0,42,0.00,,CLR,0.00,VWS V14.00,2013-01-16 11:07:00,
2013-01-16 05:12:00,23.4,3.2,28.79,SE,130,5.8,10.5,41,0.00,,CLR,0.00,VWS V14.00,2013-01-16 11:12:00,
2013-01-16 05:17:00,23.5,3.3,28.79,ESE,118,7.6,10.5,41,0.00,,CLR,0.00,VWS V14.00,2013-01-16 11:17:00,
2013-01-16 05:22:00,23.5,2.8,28.79,SSE,155,2.7,12.8,40,0.00,,CLR,0.00,VWS V14.00,2013-01-16 11:22:00,
2013-01-16 05:27:00,23.5,2.8,28.76,SSE,151,7.6,12.8,40,0.00,,CLR,0.00,VWS V14.00,2013-01-16 11:27:00,
2013-01-16 05:32:00,23.9,2.6,28.76,SE,143,8.7,8.7,39,0.00,,CLR,0.00,VWS V14.00,2013-01-16 11:32:00,
2013-01-16 05:37:00,24.3,2.9,28.76,SE,138,7.2,9.6,39,0.00,,CLR,0.00,VWS V14.00,2013-01-16 11:37:00,
2013-01-16 05:42:00,24.4,1.9,28.76,ESE,102,9.6,13.2,37,0.00,,CLR,0.00,VWS V14.00,2013-01-16 11:42:00,
2013-01-16 05:47:00,24.8,2.2,28.76,SSE,149,8.7,13.2,37,0.00,,CLR,0.00,VWS V14.00,2013-01-16 11:47:00,
2013-01-16 05:52:00,24.8,2.2,28.76,SE,136,5.4,10.5,37,0.00,,CLR,0.00,VWS V14.00,2013-01-16 11:52:00,
2013-01-16 05:57:00,25.2,2.0,28.76,SE,143,7.6,10.5,36,0.00,,CLR,0.00,VWS V14.00,2013-01-16 11:57:00,
2013-01-16 06:02:00,25.3,1.5,28.76,SSE,150,3.6,10.5,35,0.00,,BKN080,0.00,VWS V14.00,2013-01-16 12:02:00,
2013-01-16 06:07:00,25.3,1.5,28.76,SE,135,5.8,10.5,35,0.00,,BKN080,0.00,VWS V14.00,2013-01-16 12:07:00,
2013-01-16 06:12:00,25.7,1.9,28.76,SE,127,5.4,11.0,35,0.00,,BKN080,0.00,VWS V14.00,2013-01-16 12:12:00,
2013-01-16 06:17:00,25.9,1.4,28.76,SE,126,8.7,11.9,34,0.00,,BKN080,0.00,VWS V14.00,2013-01-16 12:17:00,
2013-01-16 06:22:00,26.1,1.5,28.76,SSE,150,8.1,10.5,34,0.00,,BKN080,0.00,VWS V14.00,2013-01-16 12:22:00,
2013-01-16 06:27:00,26.1,1.5,28.76,SE,125,5.8,13.2,34,0.00,,BKN080,0.00,VWS V14.00,2013-01-16 12:27:00,
2013-01-16 06:32:00,26.2,1.7,28.76,SSE,160,3.6,12.3,34,0.00,,BKN080,0.00,VWS V14.00,2013-01-16 12:32:00,
2013-01-16 06:37:00,26.4,1.9,28.76,South,171,6.7,12.3,34,0.00,,BKN080,0.00,VWS V14.00,2013-01-16 12:37:00,
2013-01-16 06:42:00,26.6,2.0,28.76,SE,129,4.9,10.5,34,0.00,,BKN080,0.00,VWS V14.00,2013-01-16 12:42:00,
2013-01-16 06:47:00,26.8,1.5,28.76,SSE,153,5.4,11.0,33,0.00,,BKN080,0.00,VWS V14.00,2013-01-16 12:47:00,
2013-01-16 06:52:00,26.8,1.5,28.76,ESE,122,5.4,10.5,33,0.00,,BKN080,0.00,VWS V14.00,2013-01-16 12:52:00,
2013-01-16 06:57:00,27.0,1.7,28.76,SSE,147,2.7,12.8,33,0.00,,BKN080,0.00,VWS V14.00,2013-01-16 12:57:00,
2013-01-16 07:02:00,27.0,1.7,28.76,SSE,168,7.6,17.9,33,0.00,,BKN070,0.00,VWS V14.00,2013-01-16 13:02:00,
2013-01-16 07:07:00,27.0,1.0,28.76,SE,144,12.8,17.9,32,0.00,,BKN070,0.00,VWS V14.00,2013-01-16 13:07:00,
2013-01-16 07:12:00,27.0,1.0,28.76,SE,130,11.0,11.0,32,0.00,,BKN070,0.00,VWS V14.00,2013-01-16 13:12:00,
2013-01-16 07:17:00,27.0,1.7,28.76,SE,137,11.0,11.0,33,0.00,,BKN070,0.00,VWS V14.00,2013-01-16 13:17:00,
2013-01-16 07:22:00,27.0,1.7,28.76,SSE,150,5.4,10.5,33,0.00,,BKN070,0.00,VWS V14.00,2013-01-16 13:22:00,
2013-01-16 07:27:00,27.0,1.7,28.76,SSE,156,7.6,12.3,33,0.00,,BKN070,0.00,VWS V14.00,2013-01-16 13:27:00,
2013-01-16 07:32:00,27.0,1.7,28.76,SE,139,8.3,10.1,33,0.00,,BKN070,0.00,VWS V14.00,2013-01-16 13:32:00,
2013-01-16 07:37:00,27.0,1.7,28.76,SSE,152,7.6,12.3,33,0.00,,BKN070,0.00,VWS V14.00,2013-01-16 13:37:00,
2013-01-16 07:42:00,27.0,1.7,28.76,South,169,3.6,12.8,33,0.00,,BKN070,0.00,VWS V14.00,2013-01-16 13:42:00,
2013-01-16 07:47:00,27.0,1.7,28.76,SE,140,5.4,12.8,33,0.00,,BKN070,0.00,VWS V14.00,2013-01-16 13:47:00,
2013-01-16 07:52:00,27.0,1.7,28.76,SSE,162,2.2,8.7,33,0.00,,BKN070,0.00,VWS V14.00,2013-01-16 13:52:00,
2013-01-16 07:57:00,27.0,1.7,28.76,SE,137,11.0,12.8,33,0.00,,BKN070,0.00,VWS V14.00,2013-01-16 13:57:00,
2013-01-16 08:02:00,27.1,1.9,28.76,SSE,154,8.1,10.5,33,0.00,,OVC055,0.00,VWS V14.00,2013-01-16 14:02:00,
2013-01-16 08:07:00,27.3,2.0,28.76,SE,146,3.1,10.5,33,0.00,,OVC055,0.00,VWS V14.00,2013-01-16 14:07:00,
2013-01-16 08:12:00,27.5,2.2,28.76,SSE,151,6.3,8.7,33,0.00,,OVC055,0.00,VWS V14.00,2013-01-16 14:12:00,
2013-01-16 08:17:00,27.7,2.3,28.76,ESE,118,5.8,10.1,33,0.00,,OVC036,0.00,VWS V14.00,2013-01-16 14:17:00,
2013-01-16 08:22:00,27.7,2.3,28.76,SSE,149,8.1,10.5,33,0.00,,OVC036,0.00,VWS V14.00,2013-01-16 14:22:00,
2013-01-16 08:27:00,27.9,2.5,28.79,SSE,151,5.4,11.9,33,0.00,,OVC036,0.00,VWS V14.00,2013-01-16 14:27:00,
2013-01-16 08:32:00,27.9,2.5,28.79,SSE,149,6.3,11.0,33,0.00,,OVC036,0.00,VWS V14.00,2013-01-16 14:32:00,
2013-01-16 08:37:00,27.9,3.2,28.79,SSE,166,4.5,11.0,34,0.00,,OVC036,0.00,VWS V14.00,2013-01-16 14:37:00,
2013-01-16 08:42:00,28.2,3.5,28.79,SE,133,7.6,8.3,34,0.00,,OVC036,0.00,VWS V14.00,2013-01-16 14:42:00,
2013-01-16 08:47:00,28.2,3.5,28.79,SE,146,8.3,10.1,34,0.00,,OVC036,0.00,VWS V14.00,2013-01-16 14:47:00,
2013-01-16 08:52:00,28.6,3.8,28.79,SSE,150,3.6,8.7,34,0.00,,OVC036,0.00,VWS V14.00,2013-01-16 14:52:00,
2013-01-16 08:57:00,28.6,3.8,28.79,South,175,6.3,8.7,34,0.00,,OVC036,0.00,VWS V14.00,2013-01-16 14:57:00,
2013-01-16 09:02:00,28.9,4.1,28.79,SE,144,6.3,8.3,34,0.00,,OVC026,0.00,VWS V14.00,2013-01-16 15:02:00,
2013-01-16 09:07:00,29.3,4.4,28.79,South,177,8.1,8.3,34,0.00,,OVC026,0.00,VWS V14.00,2013-01-16 15:07:00,
2013-01-16 09:12:00,29.5,4.6,28.76,SSE,149,6.3,8.1,34,0.00,,OVC026,0.00,VWS V14.00,2013-01-16 15:12:00,
2013-01-16 09:17:00,29.8,4.9,28.76,SSE,154,6.3,10.1,34,0.00,,OVC026,0.00,VWS V14.00,2013-01-16 15:17:00,
2013-01-16 09:22:00,30.2,5.2,28.76,SSE,153,8.1,8.7,34,0.00,,OVC026,0.00,VWS V14.00,2013-01-16 15:22:00,
2013-01-16 09:27:00,30.2,5.2,28.79,SE,131,3.6,10.5,34,0.00,,OVC026,0.00,VWS V14.00,2013-01-16 15:27:00,
2013-01-16 09:32:00,30.6,4.9,28.79,South,182,4.0,11.0,33,0.00,,OVC026,0.00,VWS V14.00,2013-01-16 15:32:00,
2013-01-16 09:37:00,30.9,5.2,28.79,SSE,162,4.9,11.0,33,0.00,,OVC026,0.00,VWS V14.00,2013-01-16 15:37:00,
2013-01-16 09:42:00,31.3,5.5,28.79,South,184,2.7,8.3,33,0.00,,OVC026,0.00,VWS V14.00,2013-01-16 15:42:00,
2013-01-16 09:47:00,31.5,5.7,28.79,SSE,151,5.4,8.3,33,0.00,,OVC026,0.00,VWS V14.00,2013-01-16 15:47:00,
2013-01-16 09:51:00,31.1,6.0,28.79,SE,133,5.8,5.8,34,0.00,,OVC026,0.00,VWS V14.00,2013-01-16 15:51:00,
2013-01-16 09:56:00,31.6,5.8,28.79,SSE,149,4.0,6.3,33,0.00,,OVC026,0.00,VWS V14.00,2013-01-16 15:56:00,
2013-01-16 10:01:00,33.4,6.8,28.79,SSE,167,2.7,8.3,32,0.00,,BKN030,0.00,VWS V14.00,2013-01-16 16:01:00,
2013-01-16 10:06:00,35.2,7.7,28.79,SE,130,4.9,8.3,31,0.00,,BKN030,0.00,VWS V14.00,2013-01-16 16:06:00,
2013-01-16 10:11:00,36.3,7.9,28.76,SE,127,8.7,8.7,30,0.00,,BKN030,0.00,VWS V14.00,2013-01-16 16:11:00,
2013-01-16 10:16:00,35.6,7.2,28.76,SSE,162,3.6,8.7,30,0.00,,BKN030,0.00,VWS V14.00,2013-01-16 16:16:00,
2013-01-16 10:21:00,36.1,7.7,28.76,South,185,4.9,8.7,30,0.00,,BKN030,0.00,VWS V14.00,2013-01-16 16:21:00,
2013-01-16 10:27:00,36.5,8.0,28.76,SSE,154,3.6,8.7,30,0.00,,BKN030,0.00,VWS V14.00,2013-01-16 16:27:00,
2013-01-16 10:32:00,36.7,8.2,28.76,SE,136,8.3,8.3,30,0.00,,BKN030,0.00,VWS V14.00,2013-01-16 16:32:00,
2013-01-16 10:37:00,36.0,7.6,28.76,South,174,6.3,12.3,30,0.00,,BKN030,0.00,VWS V14.00,2013-01-16 16:37:00,
2013-01-16 10:42:00,36.9,8.3,28.76,South,173,3.1,9.2,30,0.00,,BKN030,0.00,VWS V14.00,2013-01-16 16:42:00,
2013-01-16 10:47:00,37.0,9.2,28.76,SSE,158,3.6,9.2,31,0.00,,BKN030,0.00,VWS V14.00,2013-01-16 16:47:00,
2013-01-16 10:52:00,37.8,9.1,28.76,South,175,3.1,6.3,30,0.00,,BKN030,0.00,VWS V14.00,2013-01-16 16:52:00,
2013-01-16 10:57:00,38.8,10.1,28.79,SE,129,2.7,8.1,30,0.00,,BKN030,0.00,VWS V14.00,2013-01-16 16:57:00,
2013-01-16 11:02:00,37.6,9.0,28.79,SW,226,4.0,8.7,30,0.00,,FEW029,0.00,VWS V14.00,2013-01-16 17:02:00,
2013-01-16 11:07:00,37.0,9.2,28.79,SSW,205,8.1,8.7,31,0.00,,FEW029,0.00,VWS V14.00,2013-01-16 17:07:00,
2013-01-16 11:12:00,38.1,10.2,28.79,South,182,2.2,6.7,31,0.00,,FEW029,0.00,VWS V14.00,2013-01-16 17:12:00,
2013-01-16 11:17:00,38.3,10.3,28.79,South,190,0.0,6.7,31,0.00,,FEW029,0.00,VWS V14.00,2013-01-16 17:17:00,
2013-01-16 11:22:00,39.0,11.0,28.79,South,170,6.3,8.1,31,0.00,,FEW029,0.00,VWS V14.00,2013-01-16 17:22:00,
2013-01-16 11:27:00,39.2,10.4,28.76,East,92,2.7,8.1,30,0.00,,FEW029,0.00,VWS V14.00,2013-01-16 17:27:00,
2013-01-16 11:32:00,38.1,10.2,28.76,SSW,196,5.8,11.0,31,0.00,,FEW029,0.00,VWS V14.00,2013-01-16 17:32:00,
2013-01-16 11:37:00,39.2,11.8,28.76,SSE,163,0.0,11.0,32,0.00,,FEW029,0.00,VWS V14.00,2013-01-16 17:37:00,
2013-01-16 11:42:00,41.7,12.6,28.76,South,187,3.6,8.3,30,0.00,,FEW029,0.00,VWS V14.00,2013-01-16 17:42:00,
2013-01-16 11:47:00,42.1,12.1,28.76,SSE,158,4.9,8.3,29,0.00,,FEW029,0.00,VWS V14.00,2013-01-16 17:47:00,
2013-01-16 11:52:00,42.3,13.1,28.76,South,173,0.0,5.4,30,0.00,,FEW029,0.00,VWS V14.00,2013-01-16 17:52:00,
2013-01-16 11:57:00,43.5,13.4,28.76,SSE,160,0.0,5.4,29,0.00,,FEW029,0.00,VWS V14.00,2013-01-16 17:57:00,
2013-01-16 12:02:00,42.3,12.3,28.76,South,181,2.7,5.8,29,0.00,,FEW029,0.00,VWS V14.00,2013-01-16 18:02:00,
2013-01-16 12:07:00,41.4,13.0,28.76,SSE,150,2.7,8.3,31,0.00,,BKN041,0.00,VWS V14.00,2013-01-16 18:07:00,
2013-01-16 12:12:00,41.7,14.1,28.76,South,177,3.6,6.7,32,0.00,,BKN041,0.00,VWS V14.00,2013-01-16 18:12:00,
2013-01-16 12:17:00,41.7,13.3,28.76,SW,219,5.8,6.7,31,0.00,,BKN041,0.00,VWS V14.00,2013-01-16 18:17:00,
2013-01-16 12:22:00,42.6,14.1,28.76,SSE,162,3.1,6.3,31,0.00,,BKN041,0.00,VWS V14.00,2013-01-16 18:22:00,
2013-01-16 12:27:00,41.5,13.9,28.76,SSW,194,2.7,10.5,32,0.00,,BKN041,0.00,VWS V14.00,2013-01-16 18:27:00,
2013-01-16 12:32:00,43.0,14.4,28.76,South,187,2.7,7.2,31,0.00,,BKN041,0.00,VWS V14.00,2013-01-16 18:32:00,
2013-01-16 12:37:00,43.3,14.0,28.76,SSW,200,5.4,8.1,30,0.00,,BKN041,0.00,VWS V14.00,2013-01-16 18:37:00,
2013-01-16 12:42:00,43.7,14.3,28.73,SSW,200,7.6,8.7,30,0.00,,BKN041,0.00,VWS V14.00,2013-01-16 18:42:00,
2013-01-16 12:47:00,44.2,14.8,28.73,SSW,202,3.1,9.6,30,0.00,,BKN041,0.00,VWS V14.00,2013-01-16 18:47:00,
2013-01-16 12:52:00,45.7,15.3,28.73,South,171,2.7,6.3,29,0.00,,BKN041,0.00,VWS V14.00,2013-01-16 18:52:00,
2013-01-16 12:57:00,44.6,14.3,28.76,WSW,239,8.1,12.3,29,0.00,,BKN041,0.00,VWS V14.00,2013-01-16 18:57:00,
2013-01-16 13:02:00,48.2,16.6,28.76,South,191,3.6,5.4,28,0.00,,FEW040,0.00,VWS V14.00,2013-01-16 19:02:00,
2013-01-16 13:07:00,46.8,15.4,28.76,South,190,4.0,11.0,28,0.00,,FEW040,0.00,VWS V14.00,2013-01-16 19:07:00,
2013-01-16 13:12:00,48.0,16.5,28.76,SSE,168,0.0,7.2,28,0.00,,FEW040,0.00,VWS V14.00,2013-01-16 19:12:00,
2013-01-16 13:17:00,46.6,15.2,28.76,SSW,207,2.7,8.3,28,0.00,,FEW040,0.00,VWS V14.00,2013-01-16 19:17:00,
2013-01-16 13:22:00,45.3,14.9,28.76,South,190,3.1,11.0,29,0.00,,FEW040,0.00,VWS V14.00,2013-01-16 19:22:00,
2013-01-16 13:27:00,45.5,15.9,28.76,South,187,5.4,11.0,30,0.00,,FEW040,0.00,VWS V14.00,2013-01-16 19:27:00,
2013-01-16 13:32:00,45.3,15.7,28.76,South,179,4.9,15.4,30,0.00,,FEW040,0.00,VWS V14.00,2013-01-16 19:32:00,
2013-01-16 13:37:00,45.5,15.9,28.76,SSE,167,3.1,15.4,30,0.00,,FEW040,0.00,VWS V14.00,2013-01-16 19:37:00,
2013-01-16 13:42:00,45.5,15.9,28.76,SSW,206,4.0,14.5,30,0.00,,FEW040,0.00,VWS V14.00,2013-01-16 19:42:00,
2013-01-16 13:47:00,45.9,16.2,28.76,South,182,0.0,14.5,30,0.00,,FEW040,0.00,VWS V14.00,2013-01-16 19:47:00,
2013-01-16 13:52:00,45.9,16.2,28.76,SSE,155,5.8,8.7,30,0.00,,FEW040,0.00,VWS V14.00,2013-01-16 19:52:00,
2013-01-16 13:57:00,45.7,16.0,28.76,SSW,196,5.4,8.7,30,0.00,,FEW040,0.00,VWS V14.00,2013-01-16 19:57:00,
2013-01-16 14:02:00,45.7,16.0,28.76,SSW,205,4.0,12.8,30,0.00,,FEW030,0.00,VWS V14.00,2013-01-16 20:02:00,
2013-01-16 14:07:00,46.0,15.6,28.76,SSW,198,2.7,12.8,29,0.00,,FEW030,0.00,VWS V14.00,2013-01-16 20:07:00,
2013-01-16 14:12:00,46.2,15.7,28.76,South,183,3.1,12.3,29,0.00,,FEW030,0.00,VWS V14.00,2013-01-16 20:12:00,
2013-01-16 14:17:00,46.2,15.7,28.76,South,170,2.7,12.3,29,0.00,,FEW030,0.00,VWS V14.00,2013-01-16 20:17:00,
2013-01-16 14:22:00,46.4,15.9,28.76,South,181,3.6,8.3,29,0.00,,FEW030,0.00,VWS V14.00,2013-01-16 20:22:00,
2013-01-16 14:27:00,46.4,15.9,28.76,South,173,3.6,10.1,29,0.00,,FEW030,0.00,VWS V14.00,2013-01-16 20:27:00,
2013-01-16 14:32:00,46.8,16.2,28.76,South,186,5.4,7.2,29,0.00,,FEW030,0.00,VWS V14.00,2013-01-16 20:32:00,
2013-01-16 14:37:00,46.9,15.6,28.76,South,184,5.4,7.2,28,0.00,,FEW030,0.00,VWS V14.00,2013-01-16 20:37:00,
2013-01-16 14:42:00,46.8,15.4,28.76,SW,224,4.0,7.2,28,0.00,,FEW030,0.00,VWS V14.00,2013-01-16 20:42:00,
2013-01-16 14:47:00,46.9,15.6,28.76,SSW,200,2.7,7.2,28,0.00,,FEW030,0.00,VWS V14.00,2013-01-16 20:47:00,
2013-01-16 14:52:00,46.9,15.6,28.76,SSE,164,5.8,6.3,28,0.00,,FEW030,0.00,VWS V14.00,2013-01-16 20:52:00,
2013-01-16 14:57:00,47.3,15.9,28.76,SSE,154,4.9,6.3,28,0.00,,FEW030,0.00,VWS V14.00,2013-01-16 20:57:00,
2013-01-16 15:02:00,47.3,15.9,28.76,SSE,161,3.6,8.1,28,0.00,,FEW040,0.00,VWS V14.00,2013-01-16 21:02:00,
2013-01-16 15:07:00,47.5,16.0,28.76,SSE,167,0.0,8.1,28,0.00,,FEW040,0.00,VWS V14.00,2013-01-16 21:07:00,
2013-01-16 15:12:00,47.8,16.3,28.76,South,188,3.1,8.1,28,0.00,,FEW040,0.00,VWS V14.00,2013-01-16 21:12:00,
2013-01-16 15:17:00,47.7,16.2,28.76,SE,134,4.9,8.1,28,0.00,,FEW040,0.00,VWS V14.00,2013-01-16 21:17:00,
2013-01-16 15:22:00,48.7,16.3,28.76,SSE,157,3.6,6.3,27,0.00,,FEW040,0.00,VWS V14.00,2013-01-16 21:22:00,
2013-01-16 15:27:00,49.5,16.9,28.76,SSE,167,2.2,6.3,27,0.00,,FEW040,0.00,VWS V14.00,2013-01-16 21:27:00,
2013-01-16 15:32:00,48.9,16.4,28.76,SSW,212,0.0,5.8,27,0.00,,FEW040,0.00,VWS V14.00,2013-01-16 21:32:00,
2013-01-16 15:37:00,49.1,16.6,28.76,South,176,2.7,6.3,27,0.00,,FEW040,0.00,VWS V14.00,2013-01-16 21:37:00,
2013-01-16 15:42:00,51.3,18.4,28.76,SW,226,3.6,5.8,27,0.00,,FEW040,0.00,VWS V14.00,2013-01-16 21:42:00,
2013-01-16 15:47:00,51.1,17.4,28.76,SSE,168,2.7,6.3,26,0.00,,FEW040,0.00,VWS V14.00,2013-01-16 21:47:00,
2013-01-16 15:52:00,49.5,16.9,28.76,SW,230,11.0,12.3,27,0.00,,FEW040,0.00,VWS V14.00,2013-01-16 21:52:00,
2013-01-16 15:57:00,50.2,17.5,28.76,SSE,156,0.0,12.3,27,0.00,,FEW040,0.00,VWS V14.00,2013-01-16 21:57:00,
2013-01-16 16:02:00,49.6,17.0,28.76,SSW,192,3.1,5.4,27,0.00,,FEW035,0.00,VWS V14.00,2013-01-16 22:02:00,
2013-01-16 16:07:00,49.1,16.6,28.76,South,189,4.9,11.4,27,0.00,,FEW035,0.00,VWS V14.00,2013-01-16 22:07:00,
2013-01-16 16:12:00,48.4,16.8,28.79,SSW,192,0.0,4.9,28,0.00,,FEW035,0.00,VWS V14.00,2013-01-16 22:12:00,
2013-01-16 16:17:00,48.7,17.1,28.79,SSE,164,3.6,6.3,28,0.00,,FEW035,0.00,VWS V14.00,2013-01-16 22:17:00,
2013-01-16 16:22:00,48.7,17.1,28.79,SSE,153,2.7,7.2,28,0.00,,FEW035,0.00,VWS V14.00,2013-01-16 22:22:00,
2013-01-16 16:27:00,48.2,16.6,28.79,SSW,196,4.0,7.2,28,0.00,,FEW035,0.00,VWS V14.00,2013-01-16 22:27:00,
2013-01-16 16:32:00,48.2,16.6,28.79,South,182,0.0,8.1,28,0.00,,FEW035,0.00,VWS V14.00,2013-01-16 22:32:00,
2013-01-16 16:37:00,47.8,17.1,28.79,South,174,4.0,8.3,29,0.00,,FEW035,0.00,VWS V14.00,2013-01-16 22:37:00,
2013-01-16 16:42:00,47.3,16.7,28.82,SSW,207,3.6,8.3,29,0.00,,FEW035,0.00,VWS V14.00,2013-01-16 22:42:00,
2013-01-16 16:47:00,46.9,17.1,28.82,SSW,207,0.0,8.3,30,0.00,,FEW035,0.00,VWS V14.00,2013-01-16 22:47:00,
2013-01-16 16:52:00,46.4,17.4,28.82,SW,226,2.7,6.3,31,0.00,,FEW035,0.00,VWS V14.00,2013-01-16 22:52:00,
2013-01-16 16:57:00,46.0,17.9,28.82,SW,228,2.2,6.3,32,0.00,,FEW035,0.00,VWS V14.00,2013-01-16 22:57:00,
2013-01-16 17:02:00,45.5,17.4,28.82,South,187,0.0,6.3,32,0.00,,SCT039,0.00,VWS V14.00,2013-01-16 23:02:00,
2013-01-16 17:07:00,45.0,18.3,28.82,SW,227,2.7,7.6,34,0.00,,SCT039,0.00,VWS V14.00,2013-01-16 23:07:00,
2013-01-16 17:12:00,45.0,19.6,28.82,SW,230,5.8,6.7,36,0.00,,SCT039,0.00,VWS V14.00,2013-01-16 23:12:00,
2013-01-16 17:16:00,44.2,19.6,28.82,WSW,244,0.0,6.7,37,0.00,,SCT039,0.00,VWS V14.00,2013-01-16 23:16:00,
2013-01-16 17:21:00,44.1,20.1,28.82,SW,224,3.1,4.0,38,0.00,,SCT039,0.00,VWS V14.00,2013-01-16 23:21:00,
2013-01-16 17:26:00,44.2,20.3,28.82,West,260,3.6,8.3,38,0.00,,SCT039,0.00,VWS V14.00,2013-01-16 23:26:00,
2013-01-16 17:31:00,43.7,19.8,28.82,SSW,203,0.0,4.0,38,0.00,,SCT039,0.00,VWS V14.00,2013-01-16 23:31:00,
2013-01-16 17:36:00,42.8,19.6,28.82,SW,220,4.9,5.8,39,0.00,,SCT039,0.00,VWS V14.00,2013-01-16 23:36:00,
2013-01-16 17:41:00,41.9,18.8,28.82,SW,222,0.0,2.7,39,0.00,,SCT039,0.00,VWS V14.00,2013-01-16 23:41:00,
2013-01-16 17:46:00,41.4,20.0,28.82,South,173,0.0,5.8,42,0.00,,SCT039,0.00,VWS V14.00,2013-01-16 23:46:00,
2013-01-16 17:51:00,40.8,20.1,28.82,South,180,0.0,0.0,43,0.00,,SCT039,0.00,VWS V14.00,2013-01-16 23:51:00,
2013-01-16 17:56:00,40.5,20.3,28.85,SSW,204,0.0,2.2,44,0.00,,SCT039,0.00,VWS V14.00,2013-01-16 23:56:00,
2013-01-16 18:01:00,40.1,20.5,28.85,SSW,204,0.0,0.0,45,0.00,,FEW041,0.00,VWS V14.00,2013-01-17 00:01:00,
2013-01-16 18:06:00,39.7,20.7,28.85,SW,220,4.9,4.9,46,0.00,,FEW041,0.00,VWS V14.00,2013-01-17 00:06:00,
2013-01-16 18:11:00,39.4,20.8,28.85,SSW,193,4.0,4.0,47,0.00,,FEW041,0.00,VWS V14.00,2013-01-17 00:11:00,
2013-01-16 18:16:00,39.4,21.8,28.85,SW,219,3.6,4.0,49,0.00,,FEW041,0.00,VWS V14.00,2013-01-17 00:16:00,
2013-01-16 18:21:00,39.4,22.3,28.85,SSW,207,0.0,4.0,50,0.00,,FEW041,0.00,VWS V14.00,2013-01-17 00:21:00,
2013-01-16 18:26:00,39.0,22.0,28.85,SSW,196,0.0,4.0,50,0.00,,FEW041,0.00,VWS V14.00,2013-01-17 00:26:00,
2013-01-16 18:31:00,38.8,21.8,28.85,SSW,208,0.0,2.7,50,0.00,,FEW041,0.00,VWS V14.00,2013-01-17 00:31:00,
2013-01-16 18:36:00,39.7,22.2,28.85,SSW,212,0.0,6.3,49,0.00,,FEW041,0.00,VWS V14.00,2013-01-17 00:36:00,
2013-01-16 18:41:00,40.1,21.5,28.88,SSW,196,2.7,6.3,47,0.00,,FEW041,0.00,VWS V14.00,2013-01-17 00:41:00,
2013-01-16 18:46:00,40.5,21.3,28.88,SSW,213,3.1,8.3,46,0.00,,FEW041,0.00,VWS V14.00,2013-01-17 00:46:00,
2013-01-16 18:51:00,41.2,20.4,28.88,WSW,245,3.1,8.7,43,0.00,,FEW041,0.00,VWS V14.00,2013-01-17 00:51:00,
2013-01-16 18:56:00,41.5,20.2,28.88,SSW,203,0.0,8.7,42,0.00,,FEW041,0.00,VWS V14.00,2013-01-17 00:56:00,
2013-01-16 19:01:00,40.6,20.5,28.88,SSW,207,5.4,6.3,44,0.00,,SCT041,0.00,VWS V14.00,2013-01-17 01:01:00,
2013-01-16 19:06:00,40.6,20.5,28.88,SSW,205,3.1,7.6,44,0.00,,SCT041,0.00,VWS V14.00,2013-01-17 01:06:00,
2013-01-16 19:11:00,41.0,20.2,28.88,SSW,199,5.4,10.1,43,0.00,,SCT041,0.00,VWS V14.00,2013-01-17 01:11:00,
2013-01-16 19:16:00,41.0,19.7,28.88,SW,226,6.3,10.1,42,0.00,,SCT041,0.00,VWS V14.00,2013-01-17 01:16:00,
2013-01-16 19:21:00,40.8,20.1,28.88,South,169,3.1,6.3,43,0.00,,SCT041,0.00,VWS V14.00,2013-01-17 01:21:00,
2013-01-16 19:26:00,41.0,19.7,28.91,SW,224,4.5,8.1,42,0.00,,SCT041,0.00,VWS V14.00,2013-01-17 01:26:00,
2013-01-16 19:31:00,40.8,19.5,28.91,South,179,4.0,8.7,42,0.00,,SCT041,0.00,VWS V14.00,2013-01-17 01:31:00,
2013-01-16 19:36:00,40.6,19.4,28.91,SW,216,0.0,8.7,42,0.00,,SCT041,0.00,VWS V14.00,2013-01-17 01:36:00,
2013-01-16 19:41:00,40.5,19.2,28.91,SSW,200,5.8,7.6,42,0.00,,SCT041,0.00,VWS V14.00,2013-01-17 01:41:00,
2013-01-16 19:46:00,40.5,19.2,28.91,SW,234,5.4,8.3,42,0.00,,SCT041,0.00,VWS V14.00,2013-01-17 01:46:00,
2013-01-16 19:51:00,40.3,19.0,28.91,SW,220,4.0,7.6,42,0.00,,SCT041,0.00,VWS V14.00,2013-01-17 01:51:00,
2013-01-16 19:56:00,39.7,19.1,28.91,SW,231,3.1,7.6,43,0.00,,SCT041,0.00,VWS V14.00,2013-01-17 01:56:00,
2013-01-16 20:01:00,39.6,18.9,28.91,SSW,208,3.1,8.7,43,0.00,,OVC050,0.00,VWS V14.00,2013-01-17 02:01:00,
2013-01-16 20:06:00,39.2,19.1,28.91,West,265,2.7,8.7,44,0.00,,OVC050,0.00,VWS V14.00,2013-01-17 02:06:00,
2013-01-16 20:11:00,38.8,19.3,28.91,SSW,203,4.0,8.3,45,0.00,,OVC050,0.00,VWS V14.00,2013-01-17 02:11:00,
2013-01-16 20:16:00,38.8,19.8,28.91,WSW,239,7.6,8.3,46,0.00,,OVC050,0.00,VWS V14.00,2013-01-17 02:16:00,
2013-01-16 20:21:00,38.5,20.0,28.91,SW,222,4.0,5.8,47,0.00,,OVC050,0.00,VWS V14.00,2013-01-17 02:21:00,
2013-01-16 20:26:00,38.7,20.2,28.94,WNW,291,3.1,11.9,47,0.00,,OVC050,0.00,VWS V14.00,2013-01-17 02:26:00,
2013-01-16 20:31:00,38.5,20.0,28.94,WSW,245,4.9,12.8,47,0.00,,OVC050,0.00,VWS V14.00,2013-01-17 02:31:00,
2013-01-16 20:36:00,38.5,20.5,28.94,West,270,3.6,12.8,48,0.00,,OVC050,0.00,VWS V14.00,2013-01-17 02:36:00,
2013-01-16 20:41:00,38.3,20.4,28.94,West,281,3.6,9.6,48,0.00,,OVC050,0.00,VWS V14.00,2013-01-17 02:41:00,
2013-01-16 20:46:00,37.9,20.5,28.94,WNW,297,3.1,9.6,49,0.00,,OVC050,0.00,VWS V14.00,2013-01-17 02:46:00,
2013-01-16 20:51:00,37.6,20.6,28.94,WSW,243,2.7,5.8,50,0.00,,OVC050,0.00,VWS V14.00,2013-01-17 02:51:00,
2013-01-16 20:56:00,37.2,20.8,28.97,SW,231,3.1,8.3,51,0.00,,OVC050,0.00,VWS V14.00,2013-01-17 02:56:00,
2013-01-16 21:01:00,36.5,21.5,28.97,SW,235,5.4,10.1,54,0.00,,OVC046,0.00,VWS V14.00,2013-01-17 03:01:00,
2013-01-16 21:06:00,36.3,22.1,28.97,WNW,301,4.9,10.5,56,0.00,,OVC046,0.00,VWS V14.00,2013-01-17 03:06:00,
2013-01-16 21:11:00,36.0,22.2,28.97,West,281,5.4,8.7,57,0.00,,OVC046,0.00,VWS V14.00,2013-01-17 03:11:00,
2013-01-16 21:16:00,35.8,22.0,28.97,West,260,8.7,10.5,57,0.00,,BKN044,0.00,VWS V14.00,2013-01-17 03:16:00,
2013-01-16 21:21:00,35.4,22.5,28.97,SW,221,5.4,8.3,59,0.00,,BKN044,0.00,VWS V14.00,2013-01-17 03:21:00,
2013-01-16 21:26:00,35.2,22.8,28.97,WNW,282,5.4,8.7,60,0.00,,BKN044,0.00,VWS V14.00,2013-01-17 03:26:00,
2013-01-16 21:31:00,34.9,22.4,28.97,West,266,4.0,6.7,60,0.00,,BKN044,0.00,VWS V14.00,2013-01-17 03:31:00,
2013-01-16 21:36:00,34.2,22.5,28.97,West,268,3.6,7.6,62,0.00,,BKN022,0.00,VWS V14.00,2013-01-17 03:36:00,
2013-01-16 21:41:00,33.8,22.5,29.00,West,266,3.1,8.3,63,0.00,,BKN022,0.00,VWS V14.00,2013-01-17 03:41:00,
2013-01-16 21:46:00,33.3,22.4,29.00,West,268,3.1,8.3,64,0.00,,BKN022,0.00,VWS V14.00,2013-01-17 03:46:00,
2013-01-16 21:51:00,32.9,22.1,29.00,SW,233,3.1,6.3,64,0.00,,BKN022,0.00,VWS V14.00,2013-01-17 03:51:00,
2013-01-16 21:56:00,32.9,22.8,29.00,WSW,249,3.6,6.3,66,0.00,,BKN022,0.00,VWS V14.00,2013-01-17 03:56:00,
2013-01-16 22:01:00,32.7,21.9,29.00,WSW,258,6.3,8.7,64,0.00,,FEW018,0.00,VWS V14.00,2013-01-17 04:01:00,
2013-01-16 22:06:00,33.1,22.6,29.00,SW,226,5.8,8.7,65,0.00,,FEW018,0.00,VWS V14.00,2013-01-17 04:06:00,
2013-01-16 22:11:00,33.1,22.2,29.00,SSW,212,5.4,5.4,64,0.00,,FEW018,0.00,VWS V14.00,2013-01-17 04:11:00,
2013-01-16 22:16:00,33.1,21.1,29.00,WSW,247,5.8,10.1,61,0.00,,FEW018,0.00,VWS V14.00,2013-01-17 04:16:00,
2013-01-16 22:21:00,32.9,19.8,29.00,WNW,287,6.3,15.0,58,0.00,,FEW018,0.00,VWS V14.00,2013-01-17 04:21:00,
2013-01-16 22:26:00,33.1,19.5,29.03,WNW,294,4.9,15.0,57,0.00,,BKN012,0.00,VWS V14.00,2013-01-17 04:26:00,
2013-01-16 22:31:00,33.1,19.1,29.03,West,266,4.0,9.6,56,0.00,,BKN012,0.00,VWS V14.00,2013-01-17 04:31:00,
2013-01-16 22:36:00,33.1,18.7,29.03,NW,306,3.1,9.6,55,0.00,,BKN012,0.00,VWS V14.00,2013-01-17 04:36:00,
2013-01-16 22:41:00,33.1,19.1,29.03,WNW,294,5.8,7.6,56,0.00,,BKN012,0.00,VWS V14.00,2013-01-17 04:41:00,
2013-01-16 22:46:00,32.9,19.4,29.03,NW,306,2.7,7.6,57,0.00,,BKN012,0.00,VWS V14.00,2013-01-17 04:46:00,
2013-01-16 22:51:00,32.7,19.2,29.03,West,265,5.8,6.3,57,0.00,,BKN012,0.00,VWS V14.00,2013-01-17 04:51:00,
2013-01-16 22:56:00,32.7,19.2,29.03,WNW,285,4.0,6.3,57,0.00,,BKN012,0.00,VWS V14.00,2013-01-17 04:56:00,
2013-01-16 23:00:00,32.7,19.2,29.03,WSW,251,3.1,7.6,57,0.00,,OVC011,0.00,VWS V14.00,2013-01-17 05:00:00,
2013-01-16 23:03:00,32.7,18.8,29.03,West,280,7.6,8.1,56,0.00,,OVC011,0.00,VWS V14.00,2013-01-17 05:03:00,
2013-01-16 23:08:00,32.5,18.2,29.03,West,277,2.7,8.3,55,0.00,,OVC011,0.00,VWS V14.00,2013-01-17 05:08:00,
2013-01-16 23:13:00,32.2,18.3,29.03,WNW,295,3.1,8.7,56,0.00,,OVC011,0.00,VWS V14.00,2013-01-17 05:13:00,
2013-01-16 23:18:00,32.0,18.5,29.03,WSW,239,7.2,7.2,57,0.00,,OVC011,0.00,VWS V14.00,2013-01-17 05:18:00,
2013-01-16 23:23:00,32.0,18.5,29.03,West,260,3.6,8.1,57,0.00,,OVC011,0.00,VWS V14.00,2013-01-17 05:23:00,
2013-01-16 23:28:00,31.8,18.3,29.06,West,259,0.0,3.6,57,0.00,,OVC011,0.00,VWS V14.00,2013-01-17 05:28:00,
2013-01-16 23:33:00,31.5,18.0,29.06,WSW,254,3.1,5.4,57,0.00,,OVC011,0.00,VWS V14.00,2013-01-17 05:33:00,
2013-01-16 23:38:00,30.9,17.5,29.06,West,274,2.2,3.1,57,0.00,,OVC011,0.00,VWS V14.00,2013-01-17 05:38:00,
2013-01-16 23:43:00,30.7,17.7,29.06,SW,218,6.3,8.7,58,0.00,,OVC011,0.00,VWS V14.00,2013-01-17 05:43:00,
2013-01-16 23:48:00,30.2,17.2,29.06,West,259,3.1,8.3,58,0.00,,OVC011,0.00,VWS V14.00,2013-01-17 05:48:00,
2013-01-16 23:53:00,30.0,16.6,29.06,West,271,4.0,8.3,57,0.00,,OVC011,0.00,VWS V14.00,2013-01-17 05:53:00,
2013-01-16 23:58:00,29.7,16.3,29.06,West,278,4.9,5.8,57,0.00,,OVC011,0.00,VWS V14.00,2013-01-17 05:58:00,